YO8SSH-13 Weather Reports


Display with metric or nautical units.
time (UTC)temp
F
wind
direction
speed
MPH
gust
MPH
rain 1hr
in
rain 24hr
in
rain mn
in
humidity
%
barometer
mb
20260506103526 85 248 2.0 2.0 0.00 0.00 0.00 23 1010.0
20260506102026 84 112 9.0 9.0 0.00 0.00 0.00 22 1010.0
20260506100526 84 202 2.0 6.0 0.00 0.00 0.00 23 1010.0
20260506095027 83 158 3.0 3.0 0.00 0.00 0.00 23 1010.0
20260506093527 83 112 2.0 4.0 0.00 0.00 0.00 23 1010.0
20260506092025 82 135 5.0 8.0 0.00 0.00 0.00 23 1010.0
20260506090527 82 292 1.0 4.0 0.00 0.00 0.00 26 1010.0
20260506085037 82 158 2.0 4.0 0.00 0.00 0.00 27 1010.0
20260506083527 81 90 1.0 2.0 0.00 0.00 0.00 29 1011.0
20260506082026 80 112 2.0 2.0 0.00 0.00 0.00 31 1011.0
20260506080526 79 135 0.0 2.0 0.00 0.00 0.00 32 1011.0
20260506073525 76 180 0.0 2.0 0.00 0.00 0.00 38 1011.0
20260506072027 75 90 4.0 4.0 0.00 0.00 0.00 39 1010.0
20260506070527 74 135 1.0 2.0 0.00 0.00 0.00 40 1010.0
20260506062027 70 68 1.0 1.0 0.00 0.00 0.00 45 1011.0
20260506060526 68 68 0.0 0.0 0.00 0.00 0.00 47 1010.0
20260506050526 58 90 0.0 2.0 0.00 0.00 0.00 60 1011.0
20260506045026 54 90 0.0 0.0 0.00 0.00 0.00 61 1010.0
20260506043526 53 270 0.0 0.0 0.00 0.00 0.00 60 1010.0
20260506042029 52 270 0.0 0.0 0.00 0.00 0.00 61 1010.0
20260506040527 51 292 0.0 0.0 0.00 0.00 0.00 61 1010.0
20260506035026 50 292 0.0 0.0 0.00 0.00 0.00 61 1010.0
20260506033527 50 292 0.0 0.0 0.00 0.00 0.00 62 1010.0
20260506032026 50 315 0.0 0.0 0.00 0.00 0.00 61 1010.0
20260506030527 50 292 0.0 0.0 0.00 0.00 0.00 61 1010.0
20260506025026 50 292 0.0 0.0 0.00 0.00 0.00 60 1010.0
20260506023526 50 292 0.0 1.0 0.00 0.00 0.00 60 1010.0
20260506022026 50 292 0.0 0.0 0.00 0.00 0.00 60 1010.0
20260506020527 51 292 0.0 0.0 0.00 0.00 0.00 60 1010.0
20260506015026 51 0 0.0 0.0 0.00 0.00 0.00 59 1010.0
20260506013526 52 22 0.0 2.0 0.00 0.00 0.00 58 1010.0
20260506012026 52 292 0.0 0.0 0.00 0.00 0.00 57 1010.0
20260506010526 52 292 0.0 0.0 0.00 0.00 0.00 57 1010.0
20260506005027 53 292 0.0 0.0 0.00 0.00 0.00 57 1010.0
20260506003526 53 292 0.0 0.0 0.00 0.00 0.00 56 1010.0
20260506002028 54 292 0.0 0.0 0.00 0.00 0.00 55 1010.0
20260506000527 54 0 0.0 0.0 0.00 0.00 0.00 54 1010.0
20260505235027 55 0 0.0 0.0 0.00 0.00 0.00 53 1010.0
20260505233526 55 0 0.0 0.0 0.00 0.00 0.00 51 1010.0
20260505232027 55 68 0.0 0.0 0.00 0.00 0.00 51 1010.0
20260505230525 56 90 0.0 0.0 0.00 0.00 0.00 49 1010.0
20260505225027 56 248 0.0 0.0 0.00 0.00 0.00 49 1010.0
20260505223526 56 292 0.0 0.0 0.00 0.00 0.00 48 1010.0
20260505222026 57 292 0.0 0.0 0.00 0.00 0.00 47 1010.0
20260505220526 58 292 0.0 0.0 0.00 0.00 0.00 46 1010.0
20260505215027 58 292 0.0 0.0 0.00 0.00 0.00 46 1010.0
20260505213525 59 292 0.0 1.0 0.00 0.00 0.00 45 1010.0
20260505212027 60 292 0.0 0.0 0.00 0.00 0.00 44 1010.0
20260505210526 61 292 0.0 0.0 0.00 0.00 0.00 42 1010.0
20260505205028 62 248 0.0 0.0 0.00 0.00 0.00 41 1010.0
20260505203527 63 292 0.0 0.0 0.00 0.00 0.00 39 1010.0
20260505202028 63 225 0.0 0.0 0.00 0.00 0.00 37 1010.0
20260505200525 64 202 0.0 0.0 0.00 0.00 0.00 37 1010.0
20260505195034 65 135 0.0 0.0 0.00 0.00 0.00 36 1010.0
20260505193527 65 135 0.0 2.0 0.00 0.00 0.00 36 1010.0
20260505192025 66 112 0.0 0.0 0.00 0.00 0.00 35 1010.0
20260505190525 67 135 0.0 0.0 0.00 0.00 0.00 33 1010.0
20260505185026 68 90 0.0 0.0 0.00 0.00 0.00 32 1010.0
20260505183526 69 135 0.0 0.0 0.00 0.00 0.00 32 1010.0
20260505182026 70 90 0.0 0.0 0.00 0.00 0.00 31 1010.0
20260505180526 70 112 0.0 0.0 0.00 0.00 0.00 30 1010.0
20260505175026 72 135 0.0 0.0 0.00 0.00 0.00 28 1009.0
20260505173525 73 112 0.0 0.0 0.00 0.00 0.00 26 1009.0
20260505172026 74 135 0.0 1.0 0.00 0.00 0.00 25 1009.0
20260505170527 76 158 0.0 0.0 0.00 0.00 0.00 24 1009.0
20260505165026 77 112 1.0 2.0 0.00 0.00 0.00 23 1009.0
20260505163527 79 135 0.0 0.0 0.00 0.00 0.00 22 1009.0
20260505162026 80 135 0.0 2.0 0.00 0.00 0.00 21 1010.0
20260505160525 81 112 0.0 5.0 0.00 0.00 0.00 21 1010.0
20260505152026 83 158 2.0 3.0 0.00 0.00 0.00 20 1010.0
20260505150527 83 135 3.0 3.0 0.00 0.00 0.00 21 1010.0
20260505140528 84 180 1.0 6.0 0.00 0.00 0.00 20 1010.0
20260505125025 86 180 4.0 7.0 0.00 0.00 0.00 20 1010.0
20260505123527 85 180 4.0 6.0 0.00 0.00 0.00 20 1011.0
20260505122025 85 180 3.0 6.0 0.00 0.00 0.00 20 1011.0
20260505121609 85 180 1.0 6.0 0.00 0.00 0.00 20 1011.0
20260505120110 85 68 4.0 6.0 0.00 0.00 0.00 19 1011.0
20260505114608 84 158 0.0 5.0 0.00 0.00 0.00 20 1011.0
20260505113109 85 90 6.0 6.0 0.00 0.00 0.00 20 1011.0
20260505111610 84 22 2.0 8.0 0.00 0.00 0.00 22 1011.0
20260505110908 83 158 8.0 8.0 0.00 0.00 0.00 22 1011.0